Flag for U.S.A. Weather past 2 weeks in Birmingham, Alabama, U.S.A.

Now
79 °F

Broken clouds.


Feels Like: 81 °F
Forecast: 67 / 78 °F
Wind: No wind

Location: Birmingham International Airport

Current Time: May 28, 2015 at 1:50:33 PM

Latest Report: May 28, 2015 at 1:00 PM


Visibility: 10 mi

Pressure: 30.19 "Hg

Humidity: 69%

Dew point: 68 °F

Location of BirminghamLocation

Historic Weather in Birmingham — Graph

°F

Birmingham temperature yesterday

Maximum temperature yesterday: 83 °F (at 2:53 PM)
Minimum temperature yesterday: 68 °F (at 5:53 AM)
Average temperature yesterday: 73 °F

Past Weeks' High & Low Weather Summary

 TemperatureHumidityPressure
High88 °F (May 14, 2:53 PM)100% (May 27, 8:53 PM)30.33 "Hg (May 27, 8:53 PM)
Low49 °F (May 22, 2:53 AM)21% (May 14, 2:53 PM)29.91 "Hg (May 20, 5:53 PM)
Average73 °F73%30.15 "Hg
* Reported May 13 1:53 PM — May 28 1:00 PM, Birmingham, Weather by CustomWeather, © 2015

Note: Actual official high and low records may vary slightly from our data, if they occured in-between our weather recording intervals... More about our weather records

Advertising

Birmingham weather history for previous 24 hours

 ConditionsComfort  
Time TempWeatherWind HumidityBarometerVisibility
1:00 PM
Thu, May 28
79 °FBroken clouds.No wind69%30.19 "Hg10 mi
11:53 AM78 °FPartly sunny.5 mph76%30.18 "Hg10 mi
10:53 AM77 °FBroken clouds.5 mph79%30.19 "Hg10 mi
9:53 AM71 °FMostly cloudy.No wind87%30.20 "Hg10 mi
8:53 AM70 °FMostly cloudy.No wind90%30.20 "Hg10 mi
7:53 AM69 °FMostly cloudy.No wind90%30.20 "Hg10 mi
6:53 AM67 °FOvercast.3 mph97%30.19 "Hg10 mi
5:53 AM67 °FPassing clouds.No wind97%30.17 "Hg10 mi
4:53 AM67 °FPassing clouds.No wind93%30.14 "Hg10 mi
3:53 AM67 °FPassing clouds.5 mph93%30.11 "Hg10 mi
2:53 AM67 °FPassing clouds.3 mph93%30.11 "Hg10 mi
1:53 AM67 °FPassing clouds.No wind93%30.13 "Hg10 mi
12:53 AM67 °FPassing clouds.6 mph97%30.15 "Hg10 mi
11:53 PM
Wed, May 27
68 °FMostly cloudy.9 mph93%30.18 "Hg10 mi
10:53 PM68 °FPassing clouds.8 mph96%30.19 "Hg10 mi
9:53 PM68 °FLight rain. Passing clouds.6 mph96%30.21 "Hg9 mi
8:53 PM68 °FThunderstorms. Mostly cloudy.5 mph100%30.22 "Hg8 mi
7:53 PM68 °FThunderstorms. Fog.6 mph96%30.20 "Hg3 mi
6:53 PM68 °FThunderstorms. Fog.9 mph93%30.18 "Hg4 mi
5:53 PM80 °FThunderstorms. Mostly cloudy.5 mph71%30.11 "Hg10 mi
4:53 PM83 °FOvercast.7 mph61%30.09 "Hg10 mi
3:53 PM83 °FBroken clouds.7 mph63%30.11 "Hg10 mi
2:53 PM83 °FBroken clouds.9 mph63%30.13 "Hg10 mi
1:53 PM81 °FPartly sunny.5 mph65%30.16 "Hg10 mi
Weather by CustomWeather, © 2015

See weather overviewHow to use our weather pages